User: anonymous   Login
Location: *
(50.9167°S, 179.4000°W)
Time: 17:49:35
(UTC+00:00)
Language:

CZ-2C R/B - Orbit

View from above orbital plane
View from above orbital plane
View from above satellite
View from above satellite

Ground track
Ground track

The orbit data is extracted from the following two-line orbital elements,

1 36089U 09061B   24140.52602754  .00001146  00000-0  29026-3 0  9998
2 36089  98.3574 106.5757 0079242 202.7040 157.0643 14.50983939768002
Epoch (UTC): 19 May 2024 12:37:28
Eccentricity: 0.0079242
inclination: 98.3574°
perigee height: 666 km
apogee height: 779 km
right ascension of ascending node: 106.5757°
argument of perigee: 202.7040°
revolutions per day: 14.50983939
mean anomaly at epoch: 157.0643°
orbit number at epoch: 76800

The dashed part of the orbit path shows where the satellite is in the earth's shadow,  

DLR